Temperature
20 19 18 18 18 18 18 18 18 18 17 17 17 17 17 17 17 17 17 17 17 17 16 16 16 16 16 16 16 16 16 16 16 15 15 15 15 15 15 15 15 15 15
21 19 18 18 18 18 18 18 18 17 17 17 17 17 17 17 17 17 17 17 17 16 16 16 16 16 16 16 16 16 16 16 16 15 15 16 15 15 15 15 15 15 15
20 19 18 17 17 17 18 17 17 17 17 16 16 16 16 17 17 17 17 17 17 16 16 16 16 16 16 16 16 16 16 16 16 15 15 16 16 15 15 15 15 15 15
19 19 18 17 17 17 17 17 17 17 17 16 16 16 16 16 16 16 17 17 16 16 16 16 16 16 16 16 16 16 16 16 16 15 15 15 15 15 15 15 15 15 15
19 18 18 17 17 17 17 17 17 16 16 16 16 16 16 16 16 16 16 17 16 16 16 16 16 16 16 16 16 16 16 16 15 15 15 15 15 15 15 15 15 14 14
18 18 18 17 17 17 17 17 16 16 16 16 16 16 16 16 16 16 16 17 17 17 17 16 16 16 16 16 15 15 15 15 15 15 15 15 15 15 15 14 14 14 14
18 18 17 17 17 17 16 16 16 16 16 16 16 16 16 16 16 16 17 17 17 17 17 17 16 16 16 15 15 15 15 15 15 15 15 14 14 14 14 14 14 14 14
18 18 17 17 17 16 16 16 16 16 16 16 15 15 16 16 16 16 17 17 17 17 17 17 16 16 16 15 15 15 15 15 15 14 14 14 14 14 14 14 14 14 14
17 17 17 16 16 16 16 16 16 16 16 16 15 15 15 16 16 16 17 17 17 17 17 17 16 16 16 15 15 15 15 14 14 14 14 14 14 14 14 14 13 13 13
16 16 16 16 16 16 16 16 16 15 15 15 15 15 15 15 16 16 17 17 17 17 17 16 16 16 16 15 15 15 15 14 14 14 14 14 14 14 14 13 13 13 13
16 16 16 16 16 15 15 15 15 15 15 15 15 15 15 15 16 16 16 17 17 17 17 16 16 16 16 15 15 15 14 14 14 14 14 14 14 14 13 13 13 13 13
15 15 15 15 15 15 15 15 15 15 15 15 15 15 15 15 15 16 16 16 16 16 16 16 16 16 16 15 15 15 14 14 14 14 14 14 13 13 13 13 13 13 13
15 15 15 15 15 15 15 15 15 15 15 14 15 15 15 15 15 16 16 16 16 16 16 16 16 16 15 15 15 15 14 14 14 14 14 13 13 13 13 13 13 13 13
15 15 15 15 15 14 14 14 14 14 14 14 14 14 15 15 15 15 16 16 16 16 16 16 16 16 15 15 15 15 14 14 14 14 13 13 13 13 13 13 13 13 12
14 14 15 14 14 14 14 14 14 14 14 14 14 14 14 15 15 15 16 16 16 16 16 16 16 16 15 15 15 14 14 14 14 14 13 13 13 13 13 13 13 13 12
14 14 14 14 14 14 14 14 14 14 14 14 14 14 14 15 15 15 15 16 16 16 16 16 16 15 15 15 15 14 14 14 14 14 13 13 13 13 13 13 13 13 12
14 14 14 13 13 13 13 14 14 14 14 14 14 14 14 14 15 15 15 16 16 16 16 15 15 15 15 14 14 14 14 14 14 14 13 13 13 13 13 13 13 13 12
13 13 13 13 13 13 13 13 13 13 13 14 14 14 14 14 14 15 15 16 16 16 15 15 15 15 15 14 14 14 14 14 14 14 13 13 13 13 13 13 13 13 12
13 13 13 13 13 13 13 13 13 13 13 13 13 13 13 14 14 14 15 15 15 15 15 15 15 15 14 14 14 14 13 13 13 13 13 13 13 13 13 13 13 13 12
13 13 13 13 13 13 12 12 12 12 13 13 13 13 13 14 14 14 14 15 15 15 15 15 15 14 14 14 14 13 13 13 13 13 13 13 13 13 13 13 13 12 12
12 12 12 12 12 12 12 12 12 12 12 13 13 13 13 13 13 13 14 14 14 14 15 15 14 14 14 13 13 13 13 13 13 13 13 13 13 13 13 13 12 12 12
12 12 12 12 12 12 12 12 12 12 12 12 12 12 12 13 13 13 13 13 14 14 14 14 14 14 13 13 13 13 12 13 13 13 13 13 13 12 12 12 12 12 12
11 11 12 11 11 12 12 12 12 12 12 12 12 12 12 12 12 13 13 13 13 14 14 14 14 14 13 13 13 13 13 12 12 13 13 12 12 12 12 12 12 11 11
11 11 11 11 11 11 11 11 11 11 11 12 12 12 12 12 12 12 13 13 13 13 14 13 13 13 13 13 13 13 13 13 12 12 12 12 12 12 12 11 11 11 11
10 10 11 11 11 11 11 11 11 11 11 11 11 11 11 11 12 12 12 12 12 13 13 13 13 13 13 13 13 12 12 12 12 12 11 11 11 11 11 11 11 11 10
9 10 10 10 10 10 10 11 11 11 11 11 11 11 11 11 11 11 11 12 12 12 12 12 12 13 12 12 12 12 12 12 12 12 12 11 11 11 11 11 10 10 10
Wind_Speed
9 14 22 21 21 20 20 19 19 19 18 18 18 18 19 19 20 20 19 19 19 18 18 18 18 19 19 19 18 18 18 18 17 17 17 17 17 16 16 15 14 14 16
13 18 22 21 20 20 20 19 19 18 18 19 19 18 19 19 20 20 19 19 19 18 18 18 18 18 18 18 18 18 18 18 17 16 16 16 16 16 15 15 14 13 15
16 18 21 20 19 19 19 19 19 19 19 19 19 19 19 20 20 20 19 19 19 18 18 18 18 18 17 17 17 16 16 15 14 14 14 13 14 15 15 15 14 15 15
16 17 19 20 19 18 17 18 18 19 19 19 20 20 20 21 21 20 20 19 19 18 18 18 17 17 16 15 14 13 12 11 11 12 11 11 11 13 14 14 14 14 14
13 16 19 20 19 17 17 17 17 18 18 19 20 21 21 21 21 21 20 20 19 18 18 18 17 16 15 14 13 11 11 12 13 13 12 11 11 13 13 13 13 13 13
12 14 19 21 19 18 17 16 17 18 18 19 20 21 21 21 22 21 21 20 19 19 18 17 16 15 13 12 11 10 11 13 14 13 11 10 10 12 12 12 12 12 12
12 13 18 22 21 19 17 16 17 18 18 19 20 21 22 22 22 22 21 21 20 19 18 17 16 14 12 11 10 10 11 13 13 12 10 9 10 11 11 10 10 11 11
11 10 16 21 20 19 18 17 17 18 19 19 20 22 23 23 23 22 22 21 20 19 18 17 15 14 12 10 9 9 10 11 10 10 9 9 10 10 9 9 9 9 9
8 9 10 15 18 18 17 17 16 18 19 20 21 22 22 23 23 23 22 21 20 19 18 17 15 13 11 9 8 7 8 9 10 9 8 8 9 8 8 7 7 7 7
4 7 7 9 12 13 14 16 16 17 18 20 21 21 22 22 23 22 21 20 20 19 18 16 15 13 11 9 7 6 6 7 7 8 9 9 9 8 7 6 5 5 5
3 4 6 6 7 9 11 14 15 15 18 19 20 21 21 19 19 19 19 20 20 19 17 16 15 13 11 8 7 5 5 5 7 8 9 11 10 8 6 5 4 3 3
4 5 6 8 7 7 9 10 11 12 14 15 16 18 17 16 16 17 19 20 19 18 17 16 15 13 10 7 6 5 4 5 7 8 10 12 10 8 7 5 4 3 2
4 5 6 8 7 7 5 7 7 9 10 13 16 17 16 14 14 13 14 15 16 16 13 13 12 10 9 8 6 6 6 6 8 10 11 13 11 9 7 6 5 4 4
4 5 5 6 7 7 6 6 6 7 8 9 14 17 15 9 8 10 9 11 12 12 11 10 9 9 9 9 8 7 7 6 8 11 12 14 12 10 8 6 6 6 5
5 5 5 6 7 8 6 6 6 7 8 11 14 17 16 9 9 8 8 10 11 11 10 8 7 7 7 8 8 8 7 7 9 11 11 14 13 11 9 7 6 6 5
6 6 6 7 8 8 7 7 7 6 8 9 11 15 18 14 10 9 8 8 9 11 11 10 8 6 5 5 5 7 7 7 9 11 11 13 13 11 9 8 7 5 5
7 6 7 7 8 9 8 8 7 6 7 7 10 15 17 16 14 11 9 9 9 12 11 8 7 6 4 4 5 5 5 6 7 9 10 10 10 10 10 8 7 6 5
7 7 8 7 8 9 9 8 6 7 8 8 10 13 16 17 17 11 9 9 11 12 8 6 6 5 4 4 4 4 3 4 5 7 8 9 8 8 8 8 8 6 5
8 7 7 7 8 8 8 7 7 7 8 8 10 11 14 17 18 12 9 8 11 8 6 8 5 5 5 5 4 3 3 3 3 4 5 7 8 8 7 7 7 6 5
6 6 6 6 6 6 5 5 5 6 7 7 8 9 14 15 16 12 8 9 10 8 7 7 6 4 4 5 4 2 1 2 2 3 4 5 7 8 8 7 7 6 5
5 6 7 7 6 5 4 5 5 6 6 7 7 8 11 12 14 11 9 9 9 9 9 8 5 5 4 4 3 1 1 0 1 2 3 3 4 7 8 8 7 7 5
5 6 6 6 6 6 5 4 3 4 4 6 6 7 9 9 10 10 10 9 9 7 8 8 6 5 4 4 4 3 1 1 1 1 3 4 4 5 5 7 8 8 7
4 4 4 4 4 6 5 4 4 3 3 5 6 7 7 8 8 8 9 8 8 8 8 8 7 8 5 4 4 5 4 5 2 1 1 2 4 4 3 6 7 8 8
1 2 3 2 2 3 4 5 6 5 5 5 6 6 6 6 7 7 8 8 8 7 7 7 7 5 6 5 3 3 3 4 4 2 1 1 2 3 4 4 6 8 8
3 2 2 1 1 1 3 5 5 4 3 4 5 7 6 6 6 6 7 7 8 7 8 7 7 6 5 6 5 3 2 2 2 3 3 3 2 2 4 4 5 7 8
9 7 4 3 2 1 0 2 3 4 4 5 6 7 6 4 4 6 6 6 7 6 7 7 7 8 7 6 5 5 5 4 4 4 4 4 4 2 2 3 4 6 8
Wind_Direction
168 167 173 169 165 160 157 155 153 152 149 147 144 141 138 135 134 133 133 133 132 130 126 122 117 113 111 109 106 103 99 94 90 86 81 79 79 80 79 75 72 68 72
158 164 170 170 167 163 160 158 157 156 155 154 152 149 147 143 141 139 138 137 135 133 129 124 120 116 114 112 110 107 103 98 94 90 84 80 80 80 80 78 76 74 73
152 161 167 169 168 165 162 161 160 161 161 161 158 155 153 149 146 145 144 141 139 135 131 127 124 120 119 117 115 112 107 102 96 94 88 83 84 83 81 79 77 76 74
154 160 165 168 168 166 165 164 164 166 167 165 164 160 158 154 151 149 147 144 141 138 133 129 127 125 125 123 119 114 109 103 105 104 91 85 86 85 83 80 78 77 75
154 160 164 167 169 169 168 168 169 171 171 170 167 164 162 159 155 153 150 146 142 137 134 131 131 131 129 126 119 110 102 103 111 108 100 91 88 88 84 82 79 77 76
156 160 165 166 168 170 171 171 173 174 175 174 170 166 164 162 159 154 150 146 142 138 137 135 135 135 133 129 118 108 105 112 117 113 107 100 96 93 89 85 83 80 77
159 164 168 168 169 171 173 174 176 177 178 176 173 169 166 164 160 154 150 147 145 143 142 141 140 140 138 131 118 108 111 119 123 122 118 112 107 101 95 90 86 82 79
161 164 170 171 171 173 174 176 179 180 180 178 175 171 167 164 160 155 153 151 150 148 147 146 145 146 144 137 124 111 113 122 126 129 130 126 119 110 104 98 93 88 84
159 161 168 172 172 174 174 176 180 181 180 177 175 171 167 163 160 158 156 155 154 153 152 151 151 152 153 147 137 121 118 126 135 138 143 142 134 122 115 108 101 96 91
159 164 166 166 171 173 175 176 179 180 178 175 172 168 163 161 158 159 158 158 157 157 156 155 156 158 160 159 154 140 128 133 147 155 157 157 149 138 131 125 118 111 104
167 178 171 166 165 169 173 178 177 176 176 173 169 163 158 159 157 159 160 161 160 159 160 161 162 164 167 172 174 165 148 149 162 168 171 170 163 155 150 147 142 134 133
196 194 181 168 170 171 178 176 173 174 173 169 166 162 159 157 158 160 162 161 161 161 163 166 167 168 172 183 195 194 179 173 176 182 187 181 173 168 165 167 173 178 175
208 199 194 177 171 172 174 171 170 168 169 168 166 162 159 155 156 158 161 161 161 162 163 167 167 174 183 194 206 211 207 202 199 195 198 190 183 180 180 185 195 204 213
216 203 199 184 173 175 175 175 174 172 174 174 172 167 162 160 160 164 167 167 167 168 167 169 174 185 196 208 216 223 222 209 203 197 199 195 190 189 193 201 211 220 227
222 220 191 195 189 182 178 184 182 181 182 179 177 174 170 168 169 171 174 175 175 174 175 177 183 191 203 216 223 225 225 212 198 194 197 198 197 199 203 208 219 229 229
223 218 203 198 195 190 185 190 187 184 182 184 183 180 176 174 173 175 177 180 182 184 186 186 188 192 204 208 217 219 217 202 191 189 194 200 205 208 211 217 220 221 222
219 210 202 195 196 192 193 196 193 182 183 186 188 184 181 177 176 176 179 184 187 188 187 186 191 195 202 206 213 207 196 187 180 186 191 197 204 211 217 219 212 209 200
207 203 203 197 194 196 193 195 191 188 187 190 187 188 186 181 178 176 180 187 187 185 184 183 184 187 203 198 192 189 180 172 171 179 184 190 194 200 210 212 207 196 185
204 198 198 194 189 196 193 192 190 188 189 189 186 187 189 184 181 179 183 186 183 181 184 187 181 177 185 184 176 172 176 174 176 168 171 181 186 187 186 189 187 178 177
200 191 192 188 190 185 179 185 186 188 193 190 189 190 187 186 184 181 182 183 180 180 185 185 176 174 172 168 156 148 176 193 181 172 168 166 172 175 171 167 164 164 163
195 191 188 189 187 172 173 184 184 193 197 193 191 189 187 185 183 180 182 181 180 185 187 180 167 169 169 151 128 123 356 298 204 187 169 160 157 163 160 161 159 155 151
190 192 185 189 190 183 187 189 185 184 192 193 190 189 189 184 182 183 179 183 183 181 182 181 167 165 171 166 149 141 194 285 272 200 175 171 166 153 150 154 152 148 144
180 185 176 180 191 193 187 179 178 181 175 190 187 189 194 188 182 181 180 181 180 181 189 192 183 175 179 187 175 161 171 207 210 281 197 176 171 162 155 149 151 152 149
146 144 140 154 197 206 185 181 179 192 188 192 182 180 184 187 185 183 181 182 181 183 188 194 190 183 173 186 191 189 173 155 161 184 257 207 185 173 172 164 153 153 153
52 65 94 120 155 221 196 180 176 182 180 165 163 166 175 181 184 182 184 183 184 188 190 188 186 186 186 188 184 175 170 155 146 163 197 206 210 204 188 176 160 156 157
46 43 53 75 62 42 76 161 164 170 159 154 166 173 177 179 185 183 185 186 187 190 191 191 195 195 195 193 190 186 178 175 185 175 188 197 205 210 194 174 172 166 161
Height
1488 1491 1494 1497 1500 1502 1504 1505 1507 1509 1512 1514 1517 1519 1521 1523 1524 1526 1527 1529 1530 1531 1533 1534 1535 1536 1537 1538 1538 1539 1539 1540 1540 1541 1541 1541 1541 1541 1541 1541 1540 1540 1540
1487 1490 1493 1496 1499 1501 1503 1505 1507 1509 1511 1514 1516 1519 1521 1523 1524 1526 1528 1529 1531 1532 1534 1535 1536 1538 1539 1539 1540 1541 1541 1542 1542 1542 1543 1543 1543 1542 1542 1542 1542 1542 1541
1487 1490 1493 1496 1499 1501 1503 1505 1506 1508 1510 1513 1515 1518 1520 1522 1524 1526 1528 1529 1531 1533 1535 1536 1538 1539 1540 1541 1542 1542 1543 1543 1544 1544 1544 1544 1544 1544 1544 1543 1543 1543 1543
1488 1490 1492 1496 1499 1501 1503 1505 1506 1508 1510 1512 1515 1517 1520 1522 1524 1526 1528 1530 1532 1534 1535 1537 1539 1540 1542 1542 1543 1544 1544 1545 1545 1545 1545 1546 1545 1545 1545 1545 1544 1544 1544
1489 1490 1492 1496 1499 1501 1503 1504 1506 1507 1509 1512 1514 1517 1519 1522 1523 1526 1528 1530 1532 1534 1536 1538 1540 1541 1543 1544 1544 1545 1545 1546 1546 1547 1547 1547 1547 1546 1546 1546 1546 1545 1545
1488 1490 1492 1495 1498 1500 1502 1504 1505 1507 1509 1511 1514 1516 1519 1521 1523 1525 1527 1530 1532 1534 1537 1539 1540 1542 1544 1545 1545 1546 1546 1547 1547 1548 1548 1548 1548 1548 1547 1547 1547 1546 1546
1488 1490 1492 1494 1497 1499 1501 1503 1505 1506 1508 1511 1513 1516 1518 1521 1523 1525 1527 1530 1532 1535 1537 1539 1541 1543 1544 1545 1546 1547 1547 1548 1548 1549 1549 1549 1549 1549 1548 1548 1548 1547 1547
1488 1489 1491 1493 1496 1498 1500 1502 1504 1506 1508 1510 1513 1515 1517 1520 1522 1524 1527 1529 1532 1534 1537 1539 1541 1543 1545 1546 1547 1548 1548 1549 1549 1550 1550 1550 1550 1549 1549 1549 1548 1548 1548
1488 1489 1490 1492 1494 1497 1498 1500 1502 1505 1507 1509 1512 1514 1517 1519 1521 1524 1526 1529 1532 1534 1537 1539 1541 1543 1545 1546 1547 1548 1549 1549 1550 1550 1550 1550 1550 1550 1550 1549 1549 1549 1548
1487 1488 1489 1490 1492 1495 1497 1499 1501 1503 1505 1508 1511 1513 1516 1518 1521 1523 1526 1529 1531 1534 1537 1539 1541 1543 1545 1546 1547 1548 1549 1550 1550 1550 1551 1551 1551 1551 1550 1550 1550 1549 1549
1485 1486 1487 1489 1490 1493 1495 1497 1499 1502 1504 1506 1509 1512 1515 1517 1520 1522 1525 1528 1531 1533 1536 1539 1541 1543 1544 1546 1547 1548 1549 1549 1550 1550 1551 1551 1551 1551 1550 1550 1550 1549 1549
1483 1484 1485 1486 1488 1490 1493 1495 1497 1500 1502 1505 1507 1510 1513 1515 1518 1521 1524 1527 1530 1533 1535 1538 1540 1542 1544 1545 1546 1547 1548 1549 1549 1550 1550 1551 1551 1550 1550 1550 1549 1549 1549
1480 1481 1482 1483 1485 1487 1489 1492 1494 1497 1499 1502 1505 1508 1511 1514 1516 1519 1522 1525 1528 1531 1534 1536 1539 1541 1543 1544 1545 1546 1547 1548 1549 1549 1550 1550 1550 1550 1549 1549 1549 1548 1548
1477 1478 1478 1480 1482 1484 1487 1489 1491 1494 1496 1499 1502 1505 1508 1511 1514 1517 1520 1523 1526 1529 1532 1535 1537 1539 1541 1543 1544 1545 1546 1547 1547 1548 1549 1549 1549 1549 1548 1548 1548 1547 1547
1474 1474 1475 1477 1479 1481 1483 1486 1488 1490 1493 1496 1499 1502 1505 1508 1511 1514 1518 1521 1524 1527 1530 1533 1535 1537 1539 1541 1542 1544 1544 1545 1546 1547 1547 1548 1548 1547 1547 1547 1546 1546 1546
1469 1471 1472 1473 1475 1477 1480 1482 1484 1486 1489 1492 1495 1498 1502 1505 1508 1512 1515 1518 1522 1525 1528 1531 1533 1535 1537 1539 1540 1542 1543 1543 1544 1545 1546 1546 1546 1546 1546 1545 1545 1544 1544
1465 1467 1468 1470 1472 1474 1476 1479 1481 1482 1485 1488 1492 1495 1498 1502 1505 1509 1512 1516 1519 1523 1526 1529 1531 1533 1535 1536 1538 1539 1540 1541 1542 1543 1543 1544 1544 1544 1544 1543 1543 1542 1542
1461 1462 1464 1466 1468 1470 1472 1475 1477 1479 1481 1484 1488 1492 1495 1498 1502 1505 1509 1513 1516 1520 1523 1525 1528 1530 1532 1534 1535 1537 1538 1539 1540 1540 1541 1541 1542 1541 1541 1541 1541 1540 1540
1456 1458 1459 1461 1463 1465 1468 1470 1472 1474 1477 1480 1483 1488 1492 1495 1498 1501 1506 1510 1513 1516 1519 1522 1524 1527 1528 1530 1532 1534 1535 1536 1537 1538 1538 1539 1539 1539 1539 1539 1539 1539 1538
1451 1453 1455 1457 1459 1461 1463 1466 1468 1470 1472 1476 1479 1483 1488 1491 1494 1498 1502 1506 1509 1513 1516 1518 1521 1523 1525 1528 1529 1531 1532 1533 1534 1535 1535 1536 1536 1536 1536 1536 1537 1536 1536
1447 1449 1451 1454 1456 1458 1460 1461 1463 1466 1468 1471 1474 1479 1483 1487 1490 1494 1497 1501 1505 1508 1511 1514 1517 1519 1522 1524 1526 1528 1529 1530 1530 1531 1532 1532 1533 1533 1533 1533 1534 1534 1534
1443 1445 1447 1450 1452 1454 1456 1458 1460 1462 1464 1466 1470 1474 1479 1483 1486 1489 1493 1497 1501 1504 1508 1511 1513 1515 1518 1520 1522 1524 1525 1526 1526 1527 1528 1528 1529 1530 1530 1530 1531 1531 1531
1440 1442 1444 1446 1448 1450 1452 1454 1456 1458 1460 1463 1465 1469 1474 1478 1482 1486 1489 1493 1496 1500 1503 1506 1508 1511 1513 1515 1517 1519 1520 1520 1521 1522 1523 1524 1525 1526 1527 1527 1527 1528 1528
1438 1440 1442 1444 1446 1447 1449 1450 1452 1453 1455 1458 1461 1465 1470 1474 1478 1481 1485 1488 1492 1495 1498 1501 1504 1506 1508 1510 1512 1514 1515 1516 1517 1517 1519 1520 1521 1522 1523 1523 1523 1524 1524
1437 1439 1440 1443 1444 1445 1446 1447 1449 1451 1453 1455 1458 1462 1465 1469 1473 1477 1481 1484 1487 1491 1494 1496 1499 1501 1503 1505 1506 1507 1509 1511 1511 1513 1514 1515 1516 1517 1518 1519 1519 1520 1520
1438 1439 1440 1441 1442 1444 1445 1446 1447 1449 1450 1453 1455 1459 1462 1465 1469 1473 1477 1480 1483 1486 1488 1491 1494 1496 1497 1499 1500 1502 1503 1504 1505 1507 1508 1509 1511 1512 1513 1514 1515 1515 1516